QPF
0.00 0.00 0.00 0.00 0.00 0.00 0.00 0.00 0.00 0.00 0.00 0.00 0.00 0.00 0.00 0.00 0.00 0.00 0.00 0.00 0.02 0.05 0.05 0.08 0.12 0.13 0.16 0.11 0.07 0.05 0.04 0.04 0.04 0.04 0.03 0.03 0.04 0.05 0.08 0.11 0.14 0.18 0.14 0.08
0.00 0.00 0.00 0.00 0.00 0.00 0.00 0.00 0.00 0.00 0.00 0.00 0.00 0.00 0.00 0.00 0.00 0.00 0.00 0.00 0.01 0.02 0.04 0.07 0.10 0.12 0.15 0.14 0.10 0.09 0.06 0.06 0.08 0.11 0.10 0.10 0.12 0.14 0.17 0.21 0.24 0.21 0.13 0.09
0.00 0.00 0.00 0.00 0.00 0.00 0.00 0.00 0.00 0.00 0.00 0.00 0.00 0.00 0.00 0.00 0.00 0.00 0.00 0.00 0.00 0.00 0.01 0.03 0.06 0.09 0.13 0.16 0.14 0.15 0.17 0.18 0.22 0.23 0.20 0.21 0.25 0.26 0.27 0.26 0.24 0.18 0.12 0.10
0.00 0.00 0.00 0.00 0.00 0.00 0.00 0.00 0.00 0.00 0.00 0.00 0.00 0.00 0.00 0.00 0.00 0.00 0.00 0.00 0.00 0.00 0.01 0.02 0.03 0.05 0.08 0.14 0.16 0.18 0.26 0.35 0.41 0.39 0.39 0.39 0.39 0.35 0.30 0.25 0.21 0.18 0.15 0.12
0.00 0.00 0.00 0.00 0.00 0.00 0.00 0.00 0.00 0.00 0.00 0.00 0.00 0.00 0.00 0.00 0.00 0.00 0.00 0.00 0.00 0.01 0.01 0.01 0.02 0.03 0.05 0.09 0.14 0.19 0.26 0.31 0.35 0.42 0.49 0.49 0.42 0.35 0.29 0.24 0.20 0.18 0.15 0.09
0.00 0.00 0.00 0.00 0.00 0.00 0.00 0.00 0.00 0.00 0.00 0.00 0.00 0.00 0.00 0.00 0.00 0.00 0.00 0.01 0.01 0.01 0.01 0.02 0.02 0.03 0.05 0.08 0.12 0.17 0.21 0.23 0.30 0.34 0.36 0.32 0.29 0.26 0.25 0.23 0.20 0.17 0.11 0.07
0.00 0.00 0.00 0.00 0.00 0.00 0.00 0.00 0.00 0.00 0.00 0.00 0.00 0.00 0.00 0.00 0.00 0.00 0.00 0.01 0.01 0.01 0.01 0.02 0.03 0.04 0.05 0.07 0.09 0.11 0.13 0.14 0.16 0.19 0.21 0.19 0.19 0.18 0.18 0.18 0.15 0.11 0.07 0.04
0.00 0.00 0.00 0.00 0.00 0.00 0.00 0.00 0.00 0.00 0.00 0.00 0.00 0.00 0.02 0.01 0.01 0.01 0.01 0.01 0.01 0.02 0.03 0.03 0.04 0.04 0.06 0.07 0.07 0.07 0.08 0.10 0.11 0.12 0.14 0.15 0.15 0.15 0.14 0.13 0.10 0.08 0.05 0.03
0.00 0.00 0.00 0.00 0.00 0.00 0.00 0.00 0.00 0.00 0.00 0.00 0.00 0.04 0.05 0.03 0.02 0.01 0.01 0.02 0.02 0.03 0.03 0.03 0.03 0.03 0.04 0.04 0.04 0.05 0.06 0.07 0.08 0.10 0.10 0.10 0.12 0.13 0.13 0.12 0.10 0.07 0.04 0.02
0.00 0.00 0.00 0.00 0.00 0.00 0.00 0.00 0.00 0.00 0.00 0.00 0.01 0.05 0.08 0.06 0.05 0.04 0.03 0.03 0.03 0.03 0.03 0.03 0.02 0.02 0.02 0.02 0.03 0.04 0.05 0.05 0.06 0.07 0.07 0.08 0.09 0.09 0.08 0.07 0.05 0.03 0.01 0.00
0.00 0.00 0.00 0.00 0.00 0.00 0.00 0.00 0.00 0.00 0.00 0.00 0.01 0.05 0.10 0.14 0.13 0.10 0.07 0.04 0.03 0.03 0.02 0.02 0.02 0.02 0.02 0.02 0.02 0.02 0.02 0.03 0.04 0.05 0.05 0.06 0.05 0.04 0.04 0.03 0.02 0.01 0.00 0.00
0.01 0.01 0.00 0.00 0.00 0.00 0.00 0.00 0.00 0.00 0.00 0.00 0.01 0.09 0.18 0.24 0.25 0.19 0.12 0.07 0.04 0.03 0.02 0.02 0.02 0.02 0.02 0.02 0.02 0.02 0.02 0.03 0.03 0.03 0.03 0.03 0.03 0.02 0.02 0.01 0.01 0.00 0.00 0.00
0.00 0.00 0.01 0.01 0.01 0.01 0.00 0.00 0.00 0.00 0.00 0.00 0.02 0.13 0.26 0.30 0.28 0.22 0.14 0.09 0.07 0.05 0.04 0.03 0.02 0.02 0.02 0.02 0.01 0.02 0.02 0.02 0.02 0.02 0.02 0.02 0.02 0.02 0.01 0.01 0.00 0.00 0.00 0.00
0.00 0.00 0.02 0.05 0.05 0.02 0.01 0.00 0.00 0.00 0.00 0.01 0.04 0.11 0.18 0.24 0.26 0.28 0.26 0.21 0.18 0.15 0.12 0.09 0.06 0.04 0.03 0.03 0.02 0.01 0.02 0.02 0.02 0.02 0.02 0.02 0.02 0.01 0.01 0.01 0.01 0.01 0.00 0.00
0.00 0.01 0.02 0.02 0.03 0.01 0.01 0.01 0.01 0.01 0.02 0.05 0.09 0.11 0.17 0.27 0.35 0.38 0.40 0.37 0.31 0.26 0.20 0.15 0.11 0.08 0.05 0.04 0.04 0.03 0.03 0.03 0.03 0.04 0.04 0.03 0.03 0.02 0.02 0.01 0.01 0.01 0.00 0.00
0.01 0.01 0.01 0.02 0.02 0.03 0.03 0.03 0.03 0.05 0.09 0.13 0.16 0.18 0.24 0.28 0.31 0.36 0.40 0.36 0.32 0.27 0.23 0.21 0.18 0.13 0.11 0.09 0.08 0.07 0.06 0.05 0.04 0.03 0.03 0.02 0.02 0.01 0.01 0.01 0.01 0.00 0.00 0.00
0.01 0.01 0.01 0.01 0.02 0.05 0.10 0.11 0.13 0.15 0.16 0.16 0.18 0.21 0.25 0.23 0.19 0.22 0.26 0.28 0.29 0.27 0.26 0.26 0.25 0.23 0.20 0.17 0.14 0.12 0.09 0.07 0.05 0.05 0.04 0.03 0.03 0.02 0.02 0.01 0.01 0.00 0.00 0.00
0.00 0.01 0.01 0.01 0.02 0.06 0.08 0.07 0.11 0.14 0.14 0.15 0.13 0.16 0.17 0.15 0.13 0.15 0.18 0.19 0.22 0.26 0.29 0.32 0.30 0.26 0.23 0.19 0.15 0.12 0.09 0.07 0.06 0.05 0.03 0.02 0.02 0.01 0.01 0.01 0.00 0.00 0.00 0.00
0.01 0.01 0.01 0.01 0.04 0.09 0.08 0.05 0.04 0.07 0.08 0.10 0.10 0.10 0.09 0.07 0.08 0.10 0.12 0.11 0.11 0.12 0.14 0.15 0.14 0.12 0.10 0.09 0.06 0.05 0.04 0.03 0.02 0.01 0.01 0.01 0.01 0.01 0.01 0.01 0.01 0.00 0.00 0.00
0.00 0.00 0.01 0.01 0.03 0.06 0.06 0.04 0.02 0.04 0.07 0.10 0.09 0.08 0.09 0.07 0.04 0.04 0.04 0.04 0.05 0.06 0.06 0.06 0.06 0.05 0.04 0.04 0.03 0.02 0.02 0.01 0.01 0.01 0.00 0.00 0.00 0.00 0.00 0.00 0.00 0.00 0.00 0.00
0.00 0.00 0.01 0.02 0.04 0.05 0.03 0.02 0.02 0.03 0.05 0.08 0.08 0.08 0.07 0.05 0.03 0.01 0.02 0.02 0.02 0.03 0.03 0.03 0.03 0.03 0.02 0.02 0.02 0.01 0.01 0.01 0.01 0.00 0.00 0.00 0.00 0.00 0.00 0.00 0.00 0.00 0.00 0.00
0.00 0.00 0.01 0.02 0.03 0.03 0.01 0.01 0.01 0.02 0.03 0.03 0.03 0.04 0.04 0.04 0.03 0.03 0.03 0.02 0.02 0.02 0.02 0.02 0.01 0.01 0.01 0.01 0.01 0.01 0.01 0.01 0.01 0.01 0.01 0.01 0.01 0.01 0.01 0.01 0.01 0.00 0.00 0.00
0.00 0.00 0.00 0.01 0.02 0.02 0.01 0.01 0.01 0.01 0.01 0.01 0.01 0.01 0.01 0.01 0.01 0.01 0.01 0.01 0.02 0.01 0.01 0.01 0.01 0.01 0.01 0.00 0.01 0.01 0.01 0.01 0.01 0.01 0.00 0.00 0.00 0.00 0.00 0.00 0.00 0.00 0.00 0.00
0.00 0.00 0.00 0.01 0.03 0.02 0.01 0.01 0.01 0.01 0.00 0.01 0.01 0.01 0.01 0.00 0.00 0.00 0.00 0.00 0.01 0.01 0.01 0.00 0.00 0.00 0.00 0.00 0.01 0.01 0.01 0.01 0.01 0.01 0.01 0.00 0.00 0.00 0.01 0.00 0.00 0.00 0.00 0.00
0.00 0.00 0.00 0.01 0.02 0.02 0.01 0.00 0.00 0.01 0.01 0.01 0.01 0.03 0.03 0.01 0.01 0.01 0.00 0.00 0.01 0.01 0.00 0.00 0.00 0.00 0.00 0.01 0.01 0.01 0.00 0.01 0.01 0.01 0.01 0.01 0.01 0.00 0.01 0.01 0.01 0.00 0.00 0.00
0.00 0.00 0.00 0.01 0.01 0.01 0.01 0.00 0.00 0.01 0.01 0.01 0.02 0.03 0.02 0.01 0.01 0.01 0.01 0.00 0.01 0.00 0.00 0.00 0.00 0.00 0.00 0.00 0.00 0.00 0.00 0.00 0.01 0.01 0.01 0.01 0.01 0.01 0.02 0.02 0.02 0.01 0.01 0.00
MSLP
1011.55 1012.30 1012.86 1013.22 1013.35 1013.30 1013.09 1012.75 1012.32 1011.83 1011.27 1010.65 1009.99 1009.31 1008.65 1008.07 1007.64 1007.39 1007.37 1007.57 1007.98 1008.53 1009.14 1009.74 1010.24 1010.61 1010.83 1010.93 1010.95 1010.95 1011.02 1011.19 1011.49 1011.92 1012.46 1013.04 1013.63 1014.18 1014.64 1015.02 1015.33 1015.59 1015.85 1016.12
1011.78 1012.39 1012.82 1013.06 1013.14 1013.09 1012.94 1012.71 1012.42 1012.06 1011.62 1011.09 1010.48 1009.81 1009.14 1008.54 1008.07 1007.80 1007.77 1007.97 1008.36 1008.89 1009.46 1009.99 1010.41 1010.67 1010.78 1010.78 1010.72 1010.68 1010.74 1010.95 1011.32 1011.84 1012.48 1013.17 1013.86 1014.49 1015.02 1015.45 1015.80 1016.09 1016.36 1016.65
1011.82 1012.26 1012.55 1012.69 1012.73 1012.71 1012.66 1012.58 1012.46 1012.28 1012.01 1011.61 1011.09 1010.48 1009.84 1009.24 1008.76 1008.47 1008.42 1008.58 1008.94 1009.41 1009.91 1010.34 1010.64 1010.78 1010.77 1010.66 1010.52 1010.45 1010.51 1010.76 1011.20 1011.82 1012.56 1013.36 1014.15 1014.86 1015.47 1015.96 1016.35 1016.68 1016.97 1017.27
1011.67 1011.93 1012.07 1012.12 1012.14 1012.18 1012.25 1012.34 1012.44 1012.47 1012.39 1012.17 1011.78 1011.28 1010.70 1010.13 1009.66 1009.37 1009.29 1009.41 1009.70 1010.09 1010.48 1010.79 1010.96 1010.97 1010.85 1010.65 1010.45 1010.34 1010.42 1010.70 1011.21 1011.91 1012.74 1013.63 1014.50 1015.28 1015.96 1016.50 1016.94 1017.30 1017.61 1017.90
1011.38 1011.46 1011.45 1011.42 1011.44 1011.55 1011.76 1012.04 1012.35 1012.61 1012.74 1012.71 1012.50 1012.12 1011.63 1011.13 1010.70 1010.41 1010.31 1010.39 1010.61 1010.90 1011.18 1011.37 1011.42 1011.31 1011.09 1010.82 1010.58 1010.46 1010.54 1010.86 1011.42 1012.17 1013.06 1014.00 1014.92 1015.76 1016.47 1017.05 1017.52 1017.90 1018.22 1018.51
1011.01 1010.91 1010.78 1010.70 1010.73 1010.91 1011.26 1011.72 1012.23 1012.70 1013.04 1013.20 1013.16 1012.92 1012.55 1012.14 1011.76 1011.50 1011.40 1011.44 1011.60 1011.81 1011.99 1012.08 1012.02 1011.83 1011.54 1011.23 1010.97 1010.85 1010.95 1011.30 1011.88 1012.65 1013.56 1014.51 1015.44 1016.29 1017.01 1017.60 1018.07 1018.46 1018.78 1019.07
1010.66 1010.41 1010.18 1010.06 1010.11 1010.38 1010.84 1011.45 1012.12 1012.76 1013.28 1013.60 1013.70 1013.61 1013.36 1013.05 1012.75 1012.54 1012.45 1012.48 1012.60 1012.75 1012.86 1012.87 1012.76 1012.52 1012.21 1011.89 1011.64 1011.54 1011.66 1012.02 1012.60 1013.37 1014.25 1015.18 1016.07 1016.88 1017.58 1018.15 1018.61 1018.99 1019.31 1019.59
1010.40 1010.04 1009.75 1009.62 1009.71 1010.03 1010.58 1011.30 1012.08 1012.83 1013.46 1013.90 1014.12 1014.14 1014.00 1013.79 1013.59 1013.44 1013.39 1013.44 1013.55 1013.67 1013.74 1013.72 1013.58 1013.35 1013.05 1012.75 1012.54 1012.48 1012.63 1013.00 1013.57 1014.30 1015.13 1015.99 1016.81 1017.55 1018.19 1018.72 1019.16 1019.52 1019.83 1020.11
1010.27 1009.86 1009.57 1009.46 1009.59 1009.97 1010.58 1011.33 1012.16 1012.95 1013.62 1014.11 1014.40 1014.50 1014.46 1014.35 1014.23 1014.17 1014.18 1014.26 1014.39 1014.51 1014.58 1014.56 1014.45 1014.24 1013.99 1013.76 1013.62 1013.61 1013.79 1014.17 1014.72 1015.39 1016.15 1016.91 1017.65 1018.30 1018.86 1019.34 1019.74 1020.08 1020.39 1020.68
1010.31 1009.92 1009.67 1009.63 1009.81 1010.23 1010.85 1011.60 1012.40 1013.16 1013.80 1014.28 1014.58 1014.73 1014.76 1014.74 1014.71 1014.73 1014.81 1014.95 1015.11 1015.26 1015.35 1015.37 1015.29 1015.15 1014.97 1014.83 1014.76 1014.82 1015.05 1015.43 1015.95 1016.58 1017.25 1017.92 1018.55 1019.11 1019.60 1020.02 1020.38 1020.72 1021.02 1021.32
1010.50 1010.21 1010.06 1010.11 1010.36 1010.81 1011.41 1012.11 1012.82 1013.49 1014.04 1014.46 1014.74 1014.89 1014.97 1015.01 1015.07 1015.18 1015.33 1015.53 1015.73 1015.92 1016.05 1016.10 1016.08 1016.01 1015.92 1015.87 1015.89 1016.03 1016.30 1016.70 1017.20 1017.76 1018.36 1018.94 1019.48 1019.96 1020.38 1020.76 1021.10 1021.43 1021.75 1022.06
1010.83 1010.68 1010.68 1010.84 1011.17 1011.64 1012.20 1012.81 1013.40 1013.93 1014.36 1014.68 1014.90 1015.04 1015.15 1015.25 1015.39 1015.57 1015.80 1016.06 1016.31 1016.53 1016.69 1016.78 1016.82 1016.81 1016.81 1016.84 1016.95 1017.15 1017.47 1017.88 1018.37 1018.90 1019.43 1019.93 1020.40 1020.82 1021.19 1021.54 1021.87 1022.20 1022.53 1022.86
1011.26 1011.29 1011.45 1011.74 1012.14 1012.62 1013.13 1013.63 1014.08 1014.46 1014.75 1014.96 1015.12 1015.24 1015.37 1015.53 1015.73 1015.99 1016.29 1016.60 1016.89 1017.13 1017.32 1017.44 1017.51 1017.56 1017.62 1017.73 1017.91 1018.17 1018.53 1018.96 1019.44 1019.93 1020.41 1020.86 1021.27 1021.65 1021.99 1022.32 1022.65 1022.99 1023.33 1023.68
1011.76 1011.98 1012.30 1012.70 1013.16 1013.63 1014.08 1014.47 1014.78 1015.02 1015.18 1015.29 1015.39 1015.50 1015.66 1015.87 1016.15 1016.48 1016.84 1017.19 1017.51 1017.78 1017.97 1018.11 1018.20 1018.29 1018.39 1018.55 1018.79 1019.10 1019.49 1019.92 1020.39 1020.86 1021.30 1021.71 1022.08 1022.42 1022.74 1023.06 1023.38 1023.73 1024.08 1024.43
1012.32 1012.69 1013.14 1013.64 1014.13 1014.58 1014.96 1015.24 1015.43 1015.54 1015.60 1015.64 1015.70 1015.83 1016.03 1016.31 1016.67 1017.07 1017.48 1017.88 1018.22 1018.48 1018.68 1018.82 1018.92 1019.02 1019.16 1019.35 1019.62 1019.96 1020.36 1020.80 1021.25 1021.69 1022.10 1022.47 1022.81 1023.11 1023.41 1023.71 1024.03 1024.37 1024.71 1025.05
1012.90 1013.39 1013.93 1014.48 1014.97 1015.39 1015.69 1015.88 1015.96 1015.98 1015.97 1015.98 1016.05 1016.21 1016.47 1016.84 1017.27 1017.75 1018.22 1018.64 1018.99 1019.27 1019.46 1019.59 1019.69 1019.80 1019.95 1020.16 1020.44 1020.79 1021.19 1021.62 1022.05 1022.46 1022.83 1023.16 1023.45 1023.72 1023.99 1024.27 1024.56 1024.87 1025.19 1025.50
1013.52 1014.07 1014.64 1015.18 1015.65 1016.01 1016.23 1016.34 1016.34 1016.30 1016.26 1016.28 1016.39 1016.62 1016.97 1017.42 1017.94 1018.49 1019.01 1019.46 1019.83 1020.10 1020.29 1020.41 1020.51 1020.62 1020.77 1020.99 1021.27 1021.62 1022.02 1022.42 1022.82 1023.18 1023.50 1023.78 1024.03 1024.26 1024.48 1024.72 1024.97 1025.24 1025.51 1025.77
1014.16 1014.71 1015.26 1015.76 1016.16 1016.44 1016.59 1016.62 1016.59 1016.53 1016.50 1016.56 1016.74 1017.05 1017.50 1018.05 1018.65 1019.26 1019.83 1020.31 1020.69 1020.96 1021.14 1021.26 1021.35 1021.46 1021.62 1021.84 1022.12 1022.45 1022.82 1023.20 1023.55 1023.86 1024.13 1024.36 1024.54 1024.72 1024.89 1025.07 1025.27 1025.49 1025.70 1025.90
1014.80 1015.30 1015.79 1016.21 1016.53 1016.72 1016.80 1016.79 1016.73 1016.68 1016.70 1016.82 1017.09 1017.50 1018.04 1018.68 1019.36 1020.03 1020.63 1021.14 1021.52 1021.79 1021.97 1022.08 1022.18 1022.29 1022.45 1022.66 1022.94 1023.26 1023.59 1023.93 1024.23 1024.50 1024.70 1024.87 1025.00 1025.12 1025.24 1025.37 1025.51 1025.66 1025.82 1025.96
1015.42 1015.85 1016.25 1016.57 1016.79 1016.91 1016.93 1016.89 1016.83 1016.81 1016.89 1017.10 1017.46 1017.97 1018.60 1019.32 1020.05 1020.76 1021.38 1021.89 1022.28 1022.55 1022.72 1022.83 1022.93 1023.05 1023.21 1023.42 1023.68 1023.98 1024.29 1024.58 1024.84 1025.05 1025.20 1025.32 1025.40 1025.47 1025.54 1025.62 1025.71 1025.82 1025.92 1026.02
1015.98 1016.33 1016.63 1016.86 1016.99 1017.04 1017.02 1016.97 1016.93 1016.97 1017.12 1017.41 1017.86 1018.46 1019.16 1019.93 1020.70 1021.42 1022.05 1022.55 1022.93 1023.18 1023.35 1023.46 1023.56 1023.68 1023.84 1024.05 1024.30 1024.57 1024.85 1025.10 1025.32 1025.48 1025.59 1025.67 1025.71 1025.75 1025.79 1025.84 1025.91 1025.98 1026.06 1026.11
1016.45 1016.72 1016.94 1017.08 1017.15 1017.15 1017.11 1017.06 1017.07 1017.17 1017.39 1017.77 1018.30 1018.95 1019.71 1020.50 1021.29 1022.00 1022.61 1023.09 1023.45 1023.68 1023.84 1023.94 1024.04 1024.15 1024.31 1024.50 1024.74 1024.99 1025.24 1025.46 1025.63 1025.77 1025.85 1025.90 1025.93 1025.96 1025.99 1026.04 1026.10 1026.17 1026.23 1026.27
1016.80 1017.00 1017.16 1017.24 1017.27 1017.25 1017.21 1017.20 1017.25 1017.41 1017.71 1018.16 1018.74 1019.45 1020.22 1021.02 1021.79 1022.48 1023.06 1023.50 1023.82 1024.04 1024.17 1024.26 1024.35 1024.46 1024.60 1024.78 1024.99 1025.22 1025.43 1025.62 1025.78 1025.88 1025.96 1026.00 1026.03 1026.07 1026.12 1026.19 1026.27 1026.35 1026.42 1026.47
1016.99 1017.16 1017.28 1017.34 1017.35 1017.34 1017.33 1017.36 1017.47 1017.70 1018.06 1018.56 1019.18 1019.90 1020.68 1021.46 1022.20 1022.85 1023.38 1023.79 1024.07 1024.25 1024.36 1024.44 1024.51 1024.60 1024.73 1024.88 1025.07 1025.26 1025.45 1025.61 1025.74 1025.84 1025.91 1025.97 1026.02 1026.08 1026.16 1026.26 1026.38 1026.49 1026.59 1026.66
1017.04 1017.20 1017.31 1017.37 1017.41 1017.42 1017.46 1017.55 1017.72 1018.00 1018.41 1018.95 1019.59 1020.31 1021.07 1021.82 1022.51 1023.11 1023.60 1023.96 1024.21 1024.36 1024.45 1024.51 1024.56 1024.63 1024.73 1024.86 1025.01 1025.17 1025.33 1025.46 1025.58 1025.67 1025.74 1025.81 1025.89 1025.99 1026.11 1026.25 1026.41 1026.56 1026.69 1026.78
1016.96 1017.13 1017.26 1017.36 1017.43 1017.51 1017.60 1017.75 1017.98 1018.31 1018.76 1019.31 1019.95 1020.66 1021.38 1022.09 1022.73 1023.28 1023.73 1024.05 1024.27 1024.40 1024.47 1024.51 1024.54 1024.59 1024.66 1024.76 1024.88 1025.00 1025.12 1025.23 1025.33 1025.41 1025.49 1025.58 1025.68 1025.81 1025.97 1026.15 1026.34 1026.53 1026.69 1026.81
Thickness
5686 5674 5670 5681 5690 5696 5703 5704 5705 5720 5739 5739 5739 5749 5766 5779 5778 5780 5781 5783 5785 5788 5793 5797 5798 5798 5797 5792 5786 5784 5784 5782 5776 5770 5763 5757 5750 5747 5743 5740 5736 5731 5727 5723
5664 5664 5680 5691 5697 5701 5701 5699 5704 5720 5738 5742 5739 5749 5766 5773 5775 5779 5780 5780 5782 5783 5785 5789 5790 5790 5789 5788 5785 5780 5781 5779 5774 5767 5761 5753 5744 5737 5732 5728 5724 5720 5717 5714
5653 5669 5686 5687 5689 5692 5697 5697 5704 5711 5728 5740 5739 5739 5752 5761 5767 5769 5771 5773 5774 5779 5780 5782 5786 5786 5786 5784 5782 5780 5777 5773 5768 5761 5752 5743 5734 5726 5720 5716 5713 5708 5706 5703
5658 5675 5682 5681 5684 5692 5688 5711 5715 5717 5711 5706 5723 5707 5735 5746 5748 5750 5751 5756 5760 5766 5771 5775 5779 5780 5782 5781 5779 5776 5770 5765 5760 5753 5745 5735 5728 5719 5712 5707 5702 5698 5695 5692
5658 5674 5676 5678 5689 5697 5699 5717 5718 5718 5711 5703 5711 5706 5717 5737 5733 5734 5737 5741 5746 5751 5758 5763 5768 5770 5773 5774 5773 5769 5764 5756 5750 5744 5739 5731 5722 5714 5706 5699 5693 5687 5683 5680
5665 5682 5685 5690 5703 5708 5712 5712 5711 5701 5691 5683 5704 5706 5705 5718 5728 5727 5728 5731 5734 5739 5744 5748 5753 5757 5760 5762 5761 5757 5751 5743 5738 5733 5728 5722 5713 5705 5696 5688 5681 5676 5672 5669
5660 5675 5690 5699 5694 5703 5704 5682 5667 5669 5663 5674 5704 5703 5698 5714 5724 5723 5720 5719 5721 5725 5729 5733 5736 5740 5742 5744 5744 5742 5736 5729 5724 5719 5714 5708 5701 5694 5685 5677 5671 5666 5661 5656
5646 5655 5686 5698 5694 5690 5694 5683 5661 5657 5660 5673 5698 5690 5695 5707 5711 5711 5710 5709 5710 5711 5714 5716 5718 5721 5724 5725 5726 5724 5721 5714 5709 5703 5697 5691 5686 5679 5672 5665 5660 5655 5649 5645
5649 5657 5692 5704 5710 5702 5691 5683 5685 5671 5674 5671 5680 5685 5691 5700 5698 5697 5696 5695 5695 5697 5698 5700 5702 5704 5705 5705 5705 5704 5702 5696 5691 5687 5681 5675 5670 5664 5658 5652 5647 5642 5636 5633
5663 5660 5681 5699 5705 5703 5699 5693 5672 5663 5655 5656 5675 5677 5679 5687 5686 5684 5681 5680 5680 5682 5683 5684 5686 5687 5687 5686 5685 5684 5682 5677 5673 5670 5665 5659 5653 5648 5643 5638 5632 5627 5623 5619
5665 5656 5667 5680 5676 5677 5684 5681 5672 5661 5660 5654 5654 5662 5682 5684 5679 5672 5667 5666 5665 5666 5667 5669 5669 5670 5670 5670 5668 5666 5663 5660 5656 5652 5647 5643 5637 5633 5628 5622 5617 5613 5608 5604
5660 5652 5648 5660 5675 5685 5678 5670 5663 5652 5654 5658 5652 5650 5669 5672 5668 5662 5656 5653 5652 5652 5652 5653 5654 5655 5654 5653 5651 5649 5646 5643 5639 5636 5632 5627 5622 5618 5613 5607 5602 5598 5594 5589
5658 5645 5635 5641 5651 5663 5662 5664 5663 5657 5650 5647 5642 5642 5654 5657 5653 5650 5646 5642 5641 5639 5639 5639 5639 5639 5639 5637 5634 5632 5629 5626 5623 5620 5616 5611 5605 5601 5596 5591 5586 5582 5577 5572
5660 5639 5632 5627 5631 5643 5646 5652 5656 5649 5635 5637 5640 5640 5640 5641 5640 5637 5634 5631 5629 5627 5626 5625 5624 5623 5622 5620 5618 5615 5612 5609 5606 5603 5599 5594 5588 5583 5578 5573 5569 5564 5559 5554
5648 5633 5637 5639 5644 5645 5642 5642 5645 5642 5639 5634 5635 5634 5631 5630 5629 5626 5624 5620 5618 5614 5612 5610 5608 5606 5605 5603 5601 5599 5596 5592 5589 5586 5581 5576 5571 5566 5561 5556 5550 5546 5541 5535
5637 5630 5631 5630 5636 5635 5629 5631 5634 5634 5634 5631 5629 5622 5621 5619 5619 5615 5613 5609 5605 5602 5599 5595 5593 5591 5589 5587 5585 5583 5579 5575 5572 5569 5564 5559 5554 5549 5544 5539 5534 5529 5523 5517
5630 5625 5618 5614 5624 5624 5608 5612 5618 5618 5620 5622 5616 5612 5610 5607 5604 5601 5599 5596 5592 5588 5585 5582 5579 5576 5574 5571 5569 5566 5562 5559 5556 5551 5546 5541 5536 5531 5527 5522 5517 5511 5505 5500
5629 5620 5608 5606 5608 5592 5598 5612 5613 5609 5606 5608 5605 5601 5597 5593 5590 5587 5585 5583 5579 5575 5571 5568 5565 5562 5558 5556 5553 5550 5547 5543 5538 5534 5529 5525 5520 5514 5509 5504 5499 5494 5489 5484
5632 5621 5607 5596 5593 5590 5599 5606 5606 5600 5592 5594 5592 5588 5585 5581 5579 5573 5570 5568 5565 5561 5558 5554 5552 5549 5546 5542 5539 5536 5532 5528 5524 5519 5513 5508 5503 5498 5494 5488 5483 5478 5473 5468
5628 5618 5604 5596 5589 5581 5589 5604 5609 5598 5581 5586 5585 5581 5578 5578 5569 5561 5558 5556 5552 5549 5545 5542 5539 5537 5534 5530 5527 5523 5518 5514 5509 5505 5500 5495 5490 5484 5479 5474 5469 5464 5459 5454
5610 5604 5596 5588 5581 5582 5594 5602 5602 5582 5575 5580 5578 5575 5572 5568 5561 5554 5549 5545 5541 5538 5534 5531 5528 5525 5522 5519 5515 5510 5506 5501 5497 5493 5488 5483 5477 5471 5465 5460 5455 5450 5446 5440
5602 5594 5589 5581 5572 5573 5592 5593 5583 5575 5576 5574 5570 5566 5561 5556 5550 5545 5540 5535 5531 5528 5525 5521 5518 5514 5511 5508 5504 5498 5494 5490 5486 5481 5476 5470 5465 5460 5454 5448 5442 5437 5431 5425
5604 5596 5587 5580 5574 5580 5585 5582 5580 5576 5570 5566 5561 5557 5554 5548 5542 5536 5531 5526 5522 5519 5515 5512 5508 5504 5501 5498 5494 5488 5484 5481 5477 5471 5465 5460 5454 5449 5443 5437 5432 5425 5419 5414
5609 5603 5589 5579 5577 5578 5578 5577 5574 5571 5567 5562 5557 5552 5547 5541 5535 5529 5523 5518 5514 5511 5507 5503 5499 5495 5491 5489 5485 5481 5477 5473 5467 5462 5456 5451 5445 5440 5434 5428 5423 5417 5411 5405
5608 5600 5585 5576 5576 5574 5572 5571 5569 5566 5562 5557 5552 5546 5541 5535 5527 5522 5516 5512 5508 5504 5500 5496 5492 5488 5485 5482 5478 5475 5470 5466 5460 5455 5449 5443 5438 5433 5427 5421 5416 5411 5406 5402
5601 5595 5584 5576 5578 5571 5567 5568 5567 5562 5557 5553 5547 5540 5534 5529 5522 5516 5510 5506 5502 5498 5494 5490 5486 5483 5479 5476 5472 5469 5465 5461 5455 5449 5444 5438 5434 5429 5423 5417 5411 5407 5403 5399